Вернуться в каталог

QIANFAN-2

АктивенСвязьPO
NORAD 60380·PAYLOAD·🇨🇳 China

Запущен Aug 6, 2024 с Taiyuan Satellite Launch Center

Loading…

Ближайшие Пролёты (ближайшие 24 часа)

TLE

СвежийSource: Space-Track

Эпоха: Sep 14, 2026, 12:45 UTC

1 60380U 24140B   26257.53186539  .00000001  00000-0 -17214-4 0  9991
2 60380  88.9651 270.4503 0014804 108.2213 252.0551 13.51020218104649

Отслеживайте QIANFAN-2 в реальном времени с AllMySat

Download on the App Store